Time,TemperatureF,DewpointF,PressureIn,WindDirection,WindDirectionDegrees,WindSpeedMPH,WindSpeedGustMPH,Humidity,HourlyPrecipIn,Conditions,Clouds,dailyrainin,SoftwareType,DateUTC
2013-02-12 00:14:00,40.5,41.0,30.32,SE,126,3.0,7.0,100,0.00,,,0.00,weatherlink.com 1.10,2013-02-12 08:14:00,
2013-02-12 00:29:00,40.6,40.0,30.32,ESE,108,2.0,7.0,99,0.00,,,0.00,weatherlink.com 1.10,2013-02-12 08:29:00,
2013-02-12 00:45:00,40.6,40.0,30.32,East,98,0.0,6.0,99,0.00,,,0.00,weatherlink.com 1.10,2013-02-12 08:45:00,
2013-02-12 01:00:00,40.6,40.0,30.32,East,101,1.0,6.0,99,0.00,,,0.00,weatherlink.com 1.10,2013-02-12 09:00:00,
2013-02-12 01:15:00,40.7,41.0,30.32,ESE,111,3.0,8.0,99,0.00,,,0.00,weatherlink.com 1.10,2013-02-12 09:15:00,
2013-02-12 01:30:00,40.7,41.0,30.32,SSE,155,1.0,6.0,100,0.00,,,0.00,weatherlink.com 1.10,2013-02-12 09:30:00,
2013-02-12 01:45:00,40.7,41.0,30.32,SE,140,5.0,6.0,100,0.00,,,0.00,weatherlink.com 1.10,2013-02-12 09:45:00,
2013-02-12 02:00:00,40.7,41.0,30.32,SE,132,4.0,5.0,100,0.00,,,0.00,weatherlink.com 1.10,2013-02-12 10:00:00,
2013-02-12 02:15:00,40.7,41.0,30.33,SSE,149,0.0,8.0,100,0.00,,,0.00,weatherlink.com 1.10,2013-02-12 10:15:00,
2013-02-12 02:30:00,40.9,41.0,30.33,ESE,119,2.0,7.0,100,0.00,,,0.00,weatherlink.com 1.10,2013-02-12 10:30:00,
2013-02-12 02:45:00,40.9,41.0,30.33,SE,139,3.0,8.0,100,0.00,,,0.00,weatherlink.com 1.10,2013-02-12 10:45:00,
2013-02-12 03:00:00,40.9,41.0,30.33,SE,134,3.0,9.0,100,0.00,,,0.00,weatherlink.com 1.10,2013-02-12 11:00:00,
2013-02-12 03:15:00,40.9,41.0,30.33,SSE,155,2.0,9.0,100,0.00,,,0.00,weatherlink.com 1.10,2013-02-12 11:15:00,
2013-02-12 03:30:00,40.9,41.0,30.33,SE,134,2.0,11.0,100,0.00,,,0.00,weatherlink.com 1.10,2013-02-12 11:30:00,
2013-02-12 03:45:00,40.9,41.0,30.33,SE,126,6.0,10.0,100,0.00,,,0.00,weatherlink.com 1.10,2013-02-12 11:45:00,
2013-02-12 04:00:00,40.7,41.0,30.33,SE,138,4.0,9.0,100,0.00,,,0.00,weatherlink.com 1.10,2013-02-12 12:00:00,
2013-02-12 04:15:00,40.6,41.0,30.32,SE,136,5.0,9.0,100,0.00,,,0.00,weatherlink.com 1.10,2013-02-12 12:15:00,
2013-02-12 04:30:00,40.5,41.0,30.33,ESE,117,3.0,9.0,100,0.00,,,0.00,weatherlink.com 1.10,2013-02-12 12:30:00,
2013-02-12 04:45:00,40.4,40.0,30.32,ESE,106,5.0,8.0,100,0.00,,,0.00,weatherlink.com 1.10,2013-02-12 12:45:00,
2013-02-12 05:00:00,40.4,40.0,30.32,East,101,3.0,9.0,100,0.00,,,0.00,weatherlink.com 1.10,2013-02-12 13:00:00,
2013-02-12 05:15:00,40.3,40.0,30.33,ESE,113,3.0,12.0,100,0.00,,,0.00,weatherlink.com 1.10,2013-02-12 13:15:00,
2013-02-12 05:30:00,40.2,40.0,30.33,ESE,107,3.0,9.0,99,0.00,,,0.00,weatherlink.com 1.10,2013-02-12 13:30:00,
2013-02-12 05:45:00,40.1,40.0,30.33,ESE,103,4.0,16.0,99,0.00,,,0.00,weatherlink.com 1.10,2013-02-12 13:45:00,
2013-02-12 06:00:00,40.1,40.0,30.33,SE,133,3.0,12.0,99,0.00,,,0.00,weatherlink.com 1.10,2013-02-12 14:00:00,
2013-02-12 06:15:00,40.1,40.0,30.34,ESE,107,7.0,10.0,99,0.00,,,0.00,weatherlink.com 1.10,2013-02-12 14:15:00,
2013-02-12 06:30:00,40.1,40.0,30.34,ESE,121,5.0,9.0,99,0.00,,,0.00,weatherlink.com 1.10,2013-02-12 14:30:00,
2013-02-12 06:45:00,40.2,40.0,30.34,ESE,102,5.0,11.0,99,0.00,,,0.00,weatherlink.com 1.10,2013-02-12 14:45:00,
2013-02-12 07:01:00,40.2,40.0,30.34,ESE,109,5.0,12.0,99,0.00,,,0.00,weatherlink.com 1.10,2013-02-12 15:01:00,
2013-02-12 07:15:00,40.2,40.0,30.34,ESE,104,9.0,11.0,99,0.00,,,0.00,weatherlink.com 1.10,2013-02-12 15:15:00,
2013-02-12 07:30:00,40.1,40.0,30.34,SE,127,4.0,12.0,99,0.00,,,0.00,weatherlink.com 1.10,2013-02-12 15:30:00,
2013-02-12 07:45:00,40.0,40.0,30.35,ESE,110,9.0,14.0,100,0.00,,,0.00,weatherlink.com 1.10,2013-02-12 15:45:00,
2013-02-12 08:00:00,40.0,40.0,30.36,ESE,103,4.0,11.0,100,0.00,,,0.00,weatherlink.com 1.10,2013-02-12 16:00:00,
2013-02-12 08:15:00,40.0,40.0,30.36,ENE,77,5.0,13.0,100,0.00,,,0.00,weatherlink.com 1.10,2013-02-12 16:15:00,
2013-02-12 08:31:00,40.1,40.0,30.36,ESE,119,5.0,11.0,100,0.00,,,0.00,weatherlink.com 1.10,2013-02-12 16:31:00,
2013-02-12 08:45:00,40.1,40.0,30.36,East,92,6.0,11.0,100,0.00,,,0.00,weatherlink.com 1.10,2013-02-12 16:45:00,
2013-02-12 09:00:00,40.1,40.0,30.36,ESE,109,8.0,10.0,99,0.00,,,0.00,weatherlink.com 1.10,2013-02-12 17:00:00,
2013-02-12 09:15:00,40.1,40.0,30.35,East,93,6.0,11.0,100,0.00,,,0.00,weatherlink.com 1.10,2013-02-12 17:15:00,
2013-02-12 09:30:00,40.4,40.0,30.37,ESE,102,7.0,9.0,100,0.00,,,0.00,weatherlink.com 1.10,2013-02-12 17:30:00,
2013-02-12 09:45:00,40.4,40.0,30.38,ESE,111,7.0,9.0,100,0.00,,,0.00,weatherlink.com 1.10,2013-02-12 17:45:00,
2013-02-12 10:04:00,40.5,41.0,30.38,ESE,107,7.0,9.0,100,0.00,,,0.00,weatherlink.com 1.10,2013-02-12 18:04:00,
2013-02-12 10:16:00,40.7,41.0,30.36,ESE,115,8.0,10.0,100,0.00,,,0.00,weatherlink.com 1.10,2013-02-12 18:16:00,
2013-02-12 10:31:00,40.8,41.0,30.36,SE,130,4.0,9.0,100,0.00,,,0.00,weatherlink.com 1.10,2013-02-12 18:31:00,
2013-02-12 10:46:00,40.9,41.0,30.36,SE,130,4.0,10.0,100,0.00,,,0.00,weatherlink.com 1.10,2013-02-12 18:46:00,
2013-02-12 11:01:00,40.9,41.0,30.36,ESE,105,5.0,10.0,100,0.00,,,0.00,weatherlink.com 1.10,2013-02-12 19:01:00,
2013-02-12 11:16:00,40.9,41.0,30.36,ESE,104,7.0,12.0,100,0.00,,,0.00,weatherlink.com 1.10,2013-02-12 19:16:00,
2013-02-12 11:31:00,40.9,41.0,30.36,ESE,109,4.0,12.0,100,0.00,,,0.00,weatherlink.com 1.10,2013-02-12 19:31:00,
2013-02-12 11:46:00,41.1,41.0,30.36,ESE,104,7.0,11.0,100,0.00,,,0.00,weatherlink.com 1.10,2013-02-12 19:46:00,
2013-02-12 12:01:00,41.1,41.0,30.36,ESE,111,4.0,11.0,100,0.00,,,0.00,weatherlink.com 1.10,2013-02-12 20:01:00,
2013-02-12 12:16:00,41.2,41.0,30.35,East,90,9.0,10.0,100,0.01,,,0.01,weatherlink.com 1.10,2013-02-12 20:16:00,
2013-02-12 12:31:00,40.9,41.0,30.34,ESE,109,3.0,13.0,100,0.01,,,0.01,weatherlink.com 1.10,2013-02-12 20:31:00,
2013-02-12 12:46:00,41.2,41.0,30.32,ESE,110,8.0,14.0,100,0.01,,,0.01,weatherlink.com 1.10,2013-02-12 20:46:00,
2013-02-12 13:01:00,41.6,42.0,30.30,ESE,113,7.0,14.0,100,0.01,,,0.01,weatherlink.com 1.10,2013-02-12 21:01:00,
2013-02-12 13:16:00,42.0,42.0,30.31,ESE,106,5.0,13.0,100,0.00,,,0.01,weatherlink.com 1.10,2013-02-12 21:16:00,
2013-02-12 13:31:00,42.4,42.0,30.30,SE,138,6.0,18.0,100,0.00,,,0.01,weatherlink.com 1.10,2013-02-12 21:31:00,
2013-02-12 13:46:00,42.4,42.0,30.30,ESE,107,8.0,19.0,100,0.00,,,0.01,weatherlink.com 1.10,2013-02-12 21:46:00,
2013-02-12 14:01:00,42.0,42.0,30.29,ESE,119,9.0,18.0,100,0.00,,,0.01,weatherlink.com 1.10,2013-02-12 22:01:00,
2013-02-12 14:16:00,42.1,42.0,30.29,ESE,115,9.0,16.0,100,0.00,,,0.01,weatherlink.com 1.10,2013-02-12 22:16:00,
2013-02-12 14:31:00,42.3,42.0,30.30,SE,146,3.0,10.0,100,0.00,,,0.01,weatherlink.com 1.10,2013-02-12 22:31:00,
2013-02-12 14:46:00,42.4,42.0,30.30,SE,130,5.0,8.0,100,0.00,,,0.01,weatherlink.com 1.10,2013-02-12 22:46:00,
2013-02-12 15:01:00,42.3,42.0,30.31,SE,142,4.0,12.0,100,0.00,,,0.01,weatherlink.com 1.10,2013-02-12 23:01:00,
2013-02-12 15:16:00,42.3,42.0,30.31,ESE,112,2.0,9.0,100,0.00,,,0.01,weatherlink.com 1.10,2013-02-12 23:16:00,
2013-02-12 15:31:00,42.2,42.0,30.31,ESE,122,4.0,9.0,100,0.00,,,0.01,weatherlink.com 1.10,2013-02-12 23:31:00,
2013-02-12 15:46:00,42.1,42.0,30.31,SE,141,4.0,13.0,100,0.00,,,0.01,weatherlink.com 1.10,2013-02-12 23:46:00,
2013-02-12 16:01:00,42.2,42.0,30.31,ESE,107,3.0,9.0,100,0.00,,,0.01,weatherlink.com 1.10,2013-02-13 00:01:00,
2013-02-12 16:16:00,42.2,42.0,30.30,ESE,119,10.0,11.0,100,0.00,,,0.01,weatherlink.com 1.10,2013-02-13 00:16:00,
2013-02-12 16:31:00,42.3,42.0,30.28,SSE,149,8.0,16.0,100,0.00,,,0.01,weatherlink.com 1.10,2013-02-13 00:31:00,
2013-02-12 16:46:00,42.4,42.0,30.29,ESE,110,5.0,13.0,100,0.00,,,0.01,weatherlink.com 1.10,2013-02-13 00:46:00,
2013-02-12 17:01:00,42.5,43.0,30.29,East,88,9.0,14.0,100,0.00,,,0.01,weatherlink.com 1.10,2013-02-13 01:01:00,
2013-02-12 17:16:00,42.4,42.0,30.28,SE,145,4.0,10.0,100,0.00,,,0.01,weatherlink.com 1.10,2013-02-13 01:16:00,
2013-02-12 17:31:00,42.3,42.0,30.27,SE,142,4.0,12.0,100,0.00,,,0.01,weatherlink.com 1.10,2013-02-13 01:31:00,
2013-02-12 17:46:00,42.3,42.0,30.27,ESE,105,8.0,11.0,100,0.00,,,0.01,weatherlink.com 1.10,2013-02-13 01:46:00,
2013-02-12 18:01:00,42.2,42.0,30.26,East,98,7.0,8.0,100,0.00,,,0.01,weatherlink.com 1.10,2013-02-13 02:01:00,
2013-02-12 18:16:00,42.3,42.0,30.26,East,101,9.0,12.0,100,0.00,,,0.01,weatherlink.com 1.10,2013-02-13 02:16:00,
2013-02-12 18:31:00,42.3,42.0,30.27,East,100,5.0,11.0,100,0.00,,,0.01,weatherlink.com 1.10,2013-02-13 02:31:00,
2013-02-12 18:46:00,42.4,42.0,30.25,ESE,118,10.0,15.0,100,0.00,,,0.01,weatherlink.com 1.10,2013-02-13 02:46:00,
2013-02-12 19:01:00,42.5,43.0,30.25,East,98,10.0,14.0,100,0.00,,,0.01,weatherlink.com 1.10,2013-02-13 03:01:00,
2013-02-12 19:16:00,42.4,42.0,30.26,SSE,165,9.0,14.0,100,0.00,,,0.01,weatherlink.com 1.10,2013-02-13 03:16:00,
2013-02-12 19:34:00,42.5,43.0,30.26,SSW,194,5.0,14.0,100,0.00,,,0.01,weatherlink.com 1.10,2013-02-13 03:34:00,
2013-02-12 19:46:00,42.7,43.0,30.25,ESE,109,5.0,21.0,99,0.00,,,0.01,weatherlink.com 1.10,2013-02-13 03:46:00,
2013-02-12 20:01:00,42.6,42.0,30.26,SSE,167,8.0,19.0,99,0.00,,,0.01,weatherlink.com 1.10,2013-02-13 04:01:00,
2013-02-12 20:16:00,42.8,42.0,30.25,SSE,158,5.0,12.0,98,0.00,,,0.01,weatherlink.com 1.10,2013-02-13 04:16:00,
2013-02-12 20:31:00,43.1,42.0,30.26,South,171,7.0,14.0,97,0.00,,,0.01,weatherlink.com 1.10,2013-02-13 04:31:00,
2013-02-12 20:46:00,43.6,43.0,30.25,South,176,11.0,21.0,96,0.00,,,0.01,weatherlink.com 1.10,2013-02-13 04:46:00,
2013-02-12 21:02:00,44.0,43.0,30.26,SSE,158,4.0,18.0,95,0.00,,,0.01,weatherlink.com 1.10,2013-02-13 05:02:00,
2013-02-12 21:17:00,44.3,43.0,30.25,SW,229,14.0,23.0,94,0.00,,,0.01,weatherlink.com 1.10,2013-02-13 05:17:00,
2013-02-12 21:31:00,44.3,43.0,30.25,South,182,8.0,20.0,94,0.00,,,0.01,weatherlink.com 1.10,2013-02-13 05:31:00,
2013-02-12 21:46:00,44.3,43.0,30.26,West,273,7.0,14.0,95,0.00,,,0.01,weatherlink.com 1.10,2013-02-13 05:46:00,
2013-02-12 22:01:00,44.3,43.0,30.26,SW,232,8.0,19.0,95,0.00,,,0.01,weatherlink.com 1.10,2013-02-13 06:01:00,
2013-02-12 22:16:00,44.4,43.0,30.27,West,277,6.0,13.0,94,0.00,,,0.01,weatherlink.com 1.10,2013-02-13 06:16:00,
2013-02-12 22:31:00,44.2,42.0,30.24,SSE,162,11.0,21.0,93,0.00,,,0.01,weatherlink.com 1.10,2013-02-13 06:31:00,
2013-02-12 22:47:00,44.1,42.0,30.25,NE,55,1.0,18.0,92,0.00,,,0.01,weatherlink.com 1.10,2013-02-13 06:47:00,
2013-02-12 23:01:00,44.3,42.0,30.26,WSW,249,4.0,17.0,90,0.00,,,0.01,weatherlink.com 1.10,2013-02-13 07:01:00,
2013-02-12 23:16:00,44.1,41.0,30.26,WSW,248,10.0,16.0,89,0.00,,,0.01,weatherlink.com 1.10,2013-02-13 07:16:00,
2013-02-12 23:32:00,43.9,41.0,30.27,West,261,9.0,17.0,89,0.00,,,0.01,weatherlink.com 1.10,2013-02-13 07:32:00,
2013-02-12 23:46:00,43.9,40.0,30.27,SW,218,10.0,21.0,85,0.00,,,0.01,weatherlink.com 1.10,2013-02-13 07:46:00,